[[{"header":{"parameterUnit":"m.s-1","parameterCategory":2,"la1":30.2991,"la2":30.254,"lo1":-89.0895,"lo2":-89.0444,"dy":0.0017,"dx":0.0017,"nx":28,"ny":28,"refTime":"2024-06-29T21:00:00:Z","depth":"0","parameterNumber":2,"parameterNumberName":"U-component_of_CURRENTS"},"data":[0,0,0,0,0,0,0,0,0,0,0,0,0,0,0,0,0,0,0,0,0,0,0,0,0,0,0,0,0,0,0,0,0,0,0,0,0,0,0,0,0,0,0,0,0,0,0,0,0,0,0,0,0,0,0,0,0,0,0.2946,0.2946,0,0.2943,0.2943,0.2943,0.297,0.2971,0.2972,0.2972,0.3008,0.3009,0.3009,0,0,0,0,0,0,0,0,0,0,0,0,0,0.2974,0.2973,0.2946,0.2946,0.2946,0.2943,0.2943,0.2943,0.297,0.2971,0.2972,0.2973,0.3008,0.3009,0.3009,0,0,0,0,0,0,0,0,0,0,0,0,0,0.2965,0.2973,0.2946,0.2959,0.2961,0.2943,0.2943,0.2943,0.297,0.2971,0.2972,0.2973,0.3008,0.3009,0.3009,0.2987,0,0,0.301,0.301,0,0,0,0,0,0,0,0,0.2966,0.2964,0.2957,0.2958,0.296,0.2959,0.2967,0.296,0.2969,0.2966,0.2972,0.2974,0.2995,0.2996,0.2992,0.2989,0.299,0.301,0.301,0.301,0.301,0,0,0,0,0,0,0,0.2966,0.2964,0.2944,0.2957,0.2959,0.2966,0.2966,0.2965,0.2974,0.2966,0.2968,0.2968,0.2996,0.2991,0.2993,0.2991,0.301,0.301,0.3011,0.3011,0.3074,0.3076,0,0,0,0,0,0,0.2966,0.2965,0.2944,0.2944,0.2966,0.2964,0.2964,0.2957,0.2973,0.2976,0.2967,0.297,0.299,0.2993,0.2995,0.3047,0.301,0.3011,0.3011,0.3073,0.3074,0.3076,0,0,0,0,0,0,0.2967,0.2964,0.2945,0.2956,0.2954,0.2963,0.2955,0.2957,0.2961,0.2974,0.2978,0.2971,0.2991,0.2994,0.3019,0.3046,0.3011,0.3011,0.3071,0.3073,0.3075,0.3103,0,0,0,0,0,0,0.2967,0.2964,0.2958,0.2955,0.2953,0.2941,0.2954,0.2956,0.2959,0.2962,0.2978,0.2982,0.2992,0.3019,0.302,0.3046,0.3011,0.3069,0.3072,0.3075,0.31,0.3106,0.3111,0,0,0,0,0,0.2968,0.2958,0.2957,0.2955,0.2944,0.2941,0.294,0.2951,0.2958,0.2959,0.2984,0.2982,0.3038,0.302,0.302,0.3048,0.3068,0.3071,0.3074,0.3098,0.3105,0.3111,0,0,0,0,0,0,0.2965,0.2959,0.2959,0.2946,0.2946,0.2946,0.2946,0.295,0.2965,0.2975,0.2989,0.2995,0.3036,0.3033,0.3013,0.3077,0.3057,0.306,0.3074,0.3081,0.3086,0.3095,0.3012,0,0,0,0,0,0.296,0.2952,0.2949,0.2939,0.2939,0.2941,0.294,0.2948,0.2961,0.2968,0.2976,0.3003,0.3046,0.3056,0.3081,0.3097,0.314,0.312,0.3126,0.313,0.314,0.3229,0.3243,0.3087,0.3087,0.3087,0,0,0.2954,0.2952,0.2946,0.2939,0.2939,0.2944,0.2944,0.2946,0.2959,0.2969,0.2986,0.3018,0.3057,0.3096,0.3113,0.3096,0.3202,0.3134,0.3137,0.3145,0.3234,0.3249,0.3263,0.3089,0.3089,0.3089,0,0,0.2948,0.2939,0.2935,0.2937,0.2941,0.2944,0.2946,0.2945,0.2956,0.2973,0.3008,0.3058,0.3076,0.3128,0.3157,0.3202,0.3233,0.3206,0.323,0.3316,0.333,0.3343,0.3437,0.3457,0.3201,0.3201,0.3201,0,0.2946,0.294,0.2934,0.2938,0.2946,0.2947,0.2955,0.2962,0.2971,0.2997,0.2985,0.308,0.3102,0.3196,0.3217,0.3216,0.3269,0.32,0.3324,0.3337,0.3349,0.3443,0.3465,0.3203,0.3202,0.3202,0.3202,0,0.2943,0.2942,0.2941,0.295,0.2955,0.2961,0.2974,0.2988,0.2999,0.3016,0.3091,0.3128,0.3196,0.3211,0.3225,0.333,0.3344,0.3326,0.3306,0.3367,0.3461,0.3484,0.3205,0.3205,0.3204,0.3204,0,0,0.2933,0.2939,0.294,0.2953,0.2966,0.2973,0.3004,0.3042,0.3084,0.3097,0.3165,0.3235,0.3261,0.3298,0.3329,0.3389,0.3525,0.3389,0.3393,0.3481,0.3732,0.3782,0.3811,0.3527,0.3531,0.3534,0.377,0,0.2938,0.2949,0.2953,0.2974,0.2985,0.3009,0.3042,0.308,0.3114,0.3174,0.3236,0.3304,0.3293,0.334,0.3404,0.3499,0.3583,0.3463,0.3662,0.3669,0.3703,0.3839,0.3699,0.3901,0.3792,0.3796,0.3799,0,0.2942,0.295,0.2967,0.3005,0.3013,0.3029,0.3103,0.3133,0.3221,0.3253,0.3332,0.3375,0.3493,0.3458,0.3659,0.3584,0.3669,0.3725,0.3736,0.3787,0.3761,0.382,0.3947,0.3671,0.3834,0.3831,0.3829,0,0.295,0.2967,0.2983,0.2992,0.3029,0.3058,0.3088,0.3163,0.3213,0.3313,0.3373,0.3489,0.3576,0.3684,0.3807,0.3748,0.4024,0.3959,0.409,0.4094,0.4019,0.4011,0.39,0.4116,0.4115,0.4115,0.4114,0,0.2963,0.2978,0.2987,0.2999,0.3035,0.3066,0.3125,0.3177,0.3273,0.3346,0.3419,0.3517,0.3635,0.3792,0.3873,0.4083,0.4095,0.4144,0.4177,0.4028,0.4018,0.3808,0.3714,0.4124,0.4122,0.412,0.4118,0,0.2974,0.2978,0.3001,0.303,0.3038,0.307,0.3132,0.3188,0.3276,0.3384,0.3425,0.3587,0.3795,0.3936,0.4144,0.4196,0.4238,0.4427,0.4254,0.4262,0.4102,0.4019,0.4011,0.3907,0.4615,0.4618,0.462,0,0.2985,0.2993,0.3011,0.3018,0.3029,0.3065,0.3101,0.3181,0.3246,0.3425,0.3494,0.3721,0.388,0.4229,0.4374,0.4588,0.436,0.4554,0.4415,0.4119,0.4049,0.3895,0.3794,0.4331,0.4331,0.433,0.433,0,0.3005,0.3006,0.3018,0.303,0.3053,0.3077,0.3135,0.3187,0.3298,0.3408,0.3596,0.374,0.4075,0.4224,0.4495,0.4602,0.4287,0.4562,0.4285,0.3871,0.3668,0.3572,0.4146,0.4329,0.433,0.433,0.433,0.433,0.3019,0.3027,0.3037,0.3057,0.3068,0.3101,0.3122,0.3202,0.3313,0.345,0.3606,0.3733,0.3935,0.4317,0.4422,0.4342,0.4366,0.4167,0.4116,0.4004,0.3814,0.4414,0.4609,0.461,0.4612,0.4613,0.4614,0,0.3062,0.3061,0.3065,0.308,0.3089,0.3103,0.3154,0.316,0.3269,0.3373,0.3521,0.3577,0.3719,0.3833,0.3917,0.3833,0.3702,0.3681,0.3331,0.3275,0.3821,0.3706,0.3674,0.3674,0.3675,0.3675,0.3675,0.3675,0.3082,0.31,0.3104,0.3113,0.3112,0.3098,0.3123,0.3111,0.3137,0.3122,0.3086,0.3175,0.3233,0.3295,0.3202,0.3194,0.2893,0.2872,0.2813,0.3037,0.3071,0.3103,0.2961,0.2774,0.2774,0.2115,0.211,0.2105]},{"header":{"parameterUnit":"m.s-1","parameterCategory":2,"la1":30.2991,"la2":30.254,"lo1":-89.0895,"lo2":-89.0444,"dy":0.0017,"dx":0.0017,"nx":28,"ny":28,"refTime":"2024-06-29T21:00:00:Z","depth":"0","parameterNumber":3,"parameterNumberName":"V-component_of_CURRENTS"},"data":[0,0,0,0,0,0,0,0,0,0,0,0,0,0,0,0,0,0,0,0,0,0,0,0,0,0,0,0,0,0,0,0,0,0,0,0,0,0,0,0,0,0,0,0,0,0,0,0,0,0,0,0,0,0,0,0,0,0,-0.0345,-0.0344,0,-0.0328,-0.0328,-0.0328,-0.0373,-0.0374,-0.0375,-0.0376,-0.0454,-0.0454,-0.0455,0,0,0,0,0,0,0,0,0,0,0,0,0,-0.0402,-0.0401,-0.0345,-0.0344,-0.0344,-0.0328,-0.0328,-0.0328,-0.0373,-0.0374,-0.0376,-0.0377,-0.0453,-0.0454,-0.0456,0,0,0,0,0,0,0,0,0,0,0,0,0,-0.0383,-0.0401,-0.0345,-0.0362,-0.0363,-0.0328,-0.0328,-0.0329,-0.0373,-0.0374,-0.0376,-0.0378,-0.0453,-0.0454,-0.0456,-0.0432,0,0,-0.046,-0.0461,0,0,0,0,0,0,0,0,-0.0384,-0.0382,-0.036,-0.0361,-0.0362,-0.0352,-0.0377,-0.0367,-0.0372,-0.0372,-0.0376,-0.0378,-0.0425,-0.0429,-0.0425,-0.0435,-0.0439,-0.0461,-0.0461,-0.0462,-0.0463,0,0,0,0,0,0,0,-0.0386,-0.0382,-0.0341,-0.0359,-0.036,-0.0366,-0.0366,-0.0375,-0.0393,-0.0372,-0.0375,-0.0368,-0.0427,-0.0423,-0.0427,-0.044,-0.0461,-0.0462,-0.0463,-0.0463,-0.0504,-0.0504,0,0,0,0,0,0,-0.038,-0.0383,-0.0342,-0.034,-0.0374,-0.0363,-0.0363,-0.0356,-0.0391,-0.0397,-0.0366,-0.037,-0.042,-0.0426,-0.043,-0.0426,-0.0462,-0.0464,-0.0464,-0.0504,-0.0504,-0.0504,0,0,0,0,0,0,-0.0381,-0.0376,-0.0342,-0.036,-0.0355,-0.036,-0.0352,-0.0355,-0.0356,-0.0385,-0.0394,-0.0366,-0.0421,-0.0428,-0.0441,-0.0429,-0.0464,-0.0466,-0.0503,-0.0504,-0.0504,-0.0404,0,0,0,0,0,0,-0.0383,-0.0377,-0.0367,-0.0359,-0.0354,-0.0311,-0.035,-0.0353,-0.0347,-0.0352,-0.0387,-0.0396,-0.0423,-0.0438,-0.0442,-0.0432,-0.0467,-0.0503,-0.0503,-0.0504,-0.0407,-0.0401,-0.0395,0,0,0,0,0,-0.0385,-0.0361,-0.0366,-0.0361,-0.0341,-0.0309,-0.0307,-0.0319,-0.0346,-0.0331,-0.0366,-0.0395,-0.0445,-0.0439,-0.0444,-0.0433,-0.0503,-0.0503,-0.0504,-0.041,-0.0402,-0.0395,0,0,0,0,0,0,-0.0378,-0.0362,-0.0369,-0.0341,-0.0322,-0.0316,-0.03,-0.0313,-0.0326,-0.0338,-0.0381,-0.0391,-0.0401,-0.0433,-0.0426,-0.0451,-0.0484,-0.0486,-0.0411,-0.0405,-0.0399,-0.0383,-0.0468,0,0,0,0,0,-0.037,-0.0348,-0.0335,-0.0309,-0.03,-0.0301,-0.0291,-0.0297,-0.0306,-0.0313,-0.0339,-0.0377,-0.0403,-0.0416,-0.044,-0.044,-0.0484,-0.0446,-0.044,-0.0434,-0.0428,-0.0503,-0.0503,-0.0505,-0.0505,-0.0505,0,0,-0.0355,-0.0345,-0.0331,-0.0305,-0.0296,-0.0262,-0.03,-0.0275,-0.0257,-0.0319,-0.031,-0.0349,-0.0399,-0.0404,-0.0413,-0.043,-0.0451,-0.0435,-0.0429,-0.0426,-0.0503,-0.0503,-0.0503,-0.0505,-0.0505,-0.0505,0,0,-0.0309,-0.031,-0.0274,-0.0256,-0.0234,-0.023,-0.0222,-0.0214,-0.0224,-0.0213,-0.0266,-0.0299,-0.0322,-0.036,-0.0384,-0.0362,-0.0415,-0.0375,-0.0329,-0.0401,-0.0401,-0.0402,-0.0424,-0.0428,-0.0374,-0.0374,-0.0374,0,-0.0294,-0.0252,-0.0256,-0.0218,-0.0197,-0.0213,-0.017,-0.017,-0.017,-0.018,-0.0201,-0.0264,-0.0303,-0.0331,-0.0324,-0.0346,-0.0382,-0.0344,-0.0391,-0.0394,-0.0396,-0.0419,-0.0425,-0.0369,-0.037,-0.037,-0.0371,0,-0.022,-0.0188,-0.0164,-0.0124,-0.0101,-0.0065,-0.0064,-0.0056,-0.0075,-0.0089,-0.0119,-0.0176,-0.0222,-0.024,-0.0269,-0.0306,-0.0321,-0.0371,-0.0402,-0.0389,-0.0415,-0.0422,-0.0362,-0.0364,-0.0366,-0.0367,0,0,-0.0184,-0.0125,-0.0115,-0.0087,-0.0052,-0.0025,0.0004,0.0018,0.0022,-0.0004,-0.0012,-0.0066,-0.0118,-0.015,-0.0206,-0.0262,-0.0296,-0.0312,-0.0318,-0.0319,-0.042,-0.0339,-0.0339,-0.0358,-0.0359,-0.036,-0.0418,0,-0.0125,-0.0042,-0.0028,0.0049,0.0088,0.0083,0.0114,0.0117,0.0098,0.0086,0.0005,-0.0023,-0.0079,-0.0105,-0.0169,-0.0268,-0.0317,-0.0274,-0.0446,-0.045,-0.0368,-0.0346,-0.0246,-0.0282,-0.0426,-0.0427,-0.0428,0,-0.0057,-0.0015,0.007,0.0124,0.014,0.018,0.0205,0.023,0.0201,0.0178,0.0124,0.0063,-0.001,-0.0071,-0.0226,-0.0196,-0.0294,-0.0373,-0.0379,-0.0345,-0.0383,-0.0328,-0.029,-0.0439,-0.044,-0.0439,-0.0438,0,-0.003,0.0052,0.0117,0.014,0.0201,0.0226,0.0251,0.0251,0.0266,0.0226,0.022,0.0119,0.0072,-0.0072,-0.0204,-0.0231,-0.0366,-0.0438,-0.0453,-0.0448,-0.0416,-0.0405,-0.0531,-0.0557,-0.0557,-0.0557,-0.0557,0,0.0025,0.0077,0.0133,0.0169,0.0238,0.0261,0.031,0.0319,0.0321,0.0342,0.0261,0.0256,0.0064,-0.0026,-0.0174,-0.0298,-0.0349,-0.0428,-0.046,-0.0374,-0.0358,-0.053,-0.0613,-0.0559,-0.0558,-0.0558,-0.0558,0,0.0059,0.0096,0.017,0.0234,0.0256,0.0303,0.0361,0.0393,0.0388,0.0411,0.0404,0.0347,0.026,0.0097,-0.0111,-0.0236,-0.0423,-0.0421,-0.0267,-0.0279,-0.0429,-0.0507,-0.0634,-0.0653,-0.0459,-0.0458,-0.0456,0,0.0092,0.0133,0.0213,0.0257,0.0291,0.0352,0.0401,0.0424,0.046,0.0477,0.0499,0.0446,0.0451,0.0231,0.0027,-0.017,-0.034,-0.0253,-0.0297,-0.0401,-0.0516,-0.0576,-0.0589,-0.0215,-0.0212,-0.0209,-0.0207,0,0.0149,0.0173,0.0234,0.0319,0.0379,0.0441,0.0507,0.0551,0.0584,0.0644,0.0711,0.0728,0.0567,0.0459,0.0215,0.0055,-0.0286,-0.0203,-0.0383,-0.0375,-0.0381,-0.0425,-0.0191,-0.0183,-0.0186,-0.0187,-0.0189,-0.019,0.0194,0.0247,0.0322,0.0409,0.0471,0.0549,0.0632,0.0712,0.0829,0.0982,0.0941,0.1073,0.0829,0.0553,0.0311,-0.0067,-0.0118,-0.0211,-0.0307,-0.0367,-0.0354,-0.0021,-0.0007,-0.0008,-0.0009,-0.001,-0.0011,0,0.0268,0.0331,0.041,0.0525,0.0617,0.0621,0.0731,0.0843,0.1038,0.1202,0.1341,0.1351,0.1083,0.0695,0.017,-0.0134,-0.0254,-0.032,-0.0425,-0.0443,-0.0214,-0.0171,-0.0103,-0.0103,-0.0103,-0.0103,-0.0103,-0.0102,0.0317,0.042,0.047,0.0649,0.0726,0.0863,0.0945,0.1111,0.1264,0.1541,0.1693,0.1768,0.144,0.0468,-0.0216,-0.037,-0.0593,-0.0597,-0.0757,-0.0657,-0.0657,-0.0656,-0.0639,-0.067,-0.067,-0.0907,-0.091,-0.0912]}],[{"header":{"parameterUnit":"m.s-1","parameterCategory":2,"la1":30.2991,"la2":30.254,"lo1":-89.0895,"lo2":-89.0444,"dy":0.0017,"dx":0.0017,"nx":28,"ny":28,"refTime":"2024-06-29T21:00:00:Z","depth":"2","parameterNumber":2,"parameterNumberName":"U-component_of_CURRENTS"},"data":[0,0,0,0,0,0,0,0,0,0,0,0,0,0,0,0,0,0,0,0,0,0,0,0,0,0,0,0,0,0,0,0,0,0,0,0,0,0,0,0,0,0,0,0,0,0,0,0,0,0,0,0,0,0,0,0,0,0,0.2606,0.2607,0,0.2674,0.2675,0.2676,0.2689,0.2688,0.2688,0.2687,0.2819,0.2823,0.2827,0,0,0,0,0,0,0,0,0,0,0,0,0,0.2557,0.2557,0.2606,0.2607,0.2608,0.2674,0.2675,0.2676,0.2689,0.2688,0.2688,0.2687,0.2818,0.2823,0.2827,0,0,0,0,0,0,0,0,0,0,0,0,0,0.2595,0.2557,0.2606,0.2624,0.2626,0.2674,0.2675,0.2676,0.2689,0.2688,0.2688,0.2687,0.2816,0.2822,0.2828,0.2877,0,0,0.2846,0.2848,0,0,0,0,0,0,0,0,0.2593,0.2597,0.262,0.2623,0.2625,0.2673,0.2706,0.2747,0.2689,0.2664,0.2687,0.2687,0.2778,0.2787,0.2798,0.2883,0.2889,0.2846,0.285,0.2852,0.2854,0,0,0,0,0,0,0,0.259,0.2595,0.2632,0.2621,0.2624,0.2652,0.2656,0.2714,0.2724,0.2666,0.2667,0.2677,0.2779,0.2792,0.2802,0.2891,0.2846,0.2851,0.2855,0.2857,0.3131,0.3134,0,0,0,0,0,0,0.2582,0.2592,0.263,0.2634,0.2609,0.2653,0.2657,0.2658,0.2722,0.2731,0.2677,0.2677,0.2783,0.2795,0.2806,0.2894,0.2852,0.2858,0.2861,0.3127,0.3131,0.3136,0,0,0,0,0,0,0.258,0.2584,0.2627,0.2616,0.2624,0.2654,0.2655,0.2659,0.266,0.273,0.274,0.2672,0.2783,0.2798,0.2879,0.2898,0.286,0.2866,0.3123,0.3128,0.3133,0.3053,0,0,0,0,0,0,0.2578,0.2583,0.257,0.2615,0.2624,0.2649,0.2655,0.2661,0.2669,0.2669,0.273,0.2741,0.2783,0.287,0.2885,0.2905,0.287,0.3118,0.3125,0.3132,0.3051,0.3055,0.3059,0,0,0,0,0,0.2576,0.2567,0.2568,0.2573,0.2608,0.265,0.2656,0.2676,0.2669,0.2673,0.2734,0.2739,0.2926,0.2877,0.2894,0.2916,0.3114,0.3123,0.3131,0.3049,0.3054,0.3059,0,0,0,0,0,0,0.2533,0.2569,0.2571,0.257,0.2603,0.2652,0.2653,0.2667,0.2714,0.2711,0.2772,0.279,0.2873,0.2924,0.2869,0.3029,0.3028,0.304,0.296,0.2966,0.2969,0.3006,0.2875,0,0,0,0,0,0.2519,0.2519,0.2563,0.2559,0.2573,0.2608,0.2622,0.2637,0.2689,0.2704,0.2744,0.2824,0.2926,0.2963,0.3043,0.3115,0.3185,0.3155,0.3159,0.3161,0.3211,0.3336,0.3353,0.3163,0.3163,0.3163,0,0,0.2499,0.2519,0.2517,0.255,0.2571,0.2604,0.2614,0.2631,0.2667,0.2716,0.2759,0.2827,0.2952,0.3041,0.3083,0.3078,0.3245,0.3172,0.3171,0.3222,0.3346,0.3364,0.338,0.3169,0.3168,0.3167,0,0,0.2482,0.2478,0.2484,0.2513,0.2547,0.258,0.2582,0.262,0.2642,0.27,0.277,0.2867,0.2958,0.3076,0.315,0.3238,0.3261,0.3242,0.3281,0.3398,0.3414,0.3429,0.3485,0.3506,0.3241,0.3241,0.3241,0,0.2456,0.2474,0.2492,0.2516,0.2543,0.2569,0.2598,0.2636,0.2692,0.2738,0.2707,0.2924,0.2999,0.3188,0.3222,0.3244,0.3287,0.3228,0.3397,0.3414,0.3431,0.3486,0.3509,0.3238,0.3238,0.3239,0.3239,0,0.2465,0.2474,0.2481,0.2523,0.2553,0.2576,0.2637,0.2662,0.2679,0.2731,0.2866,0.2974,0.3114,0.315,0.3213,0.3385,0.3366,0.3374,0.3362,0.3443,0.3497,0.3523,0.3234,0.3235,0.3236,0.3237,0,0,0.2429,0.2477,0.2479,0.2501,0.2559,0.2587,0.2652,0.2743,0.2801,0.2851,0.2952,0.3131,0.3169,0.3266,0.3344,0.3458,0.3583,0.3458,0.3466,0.3475,0.3793,0.3545,0.3549,0.3592,0.3597,0.3602,0.376,0,0.2434,0.2472,0.2504,0.2547,0.2577,0.263,0.2692,0.2774,0.284,0.2932,0.3074,0.3189,0.3219,0.3277,0.3401,0.3559,0.3659,0.3538,0.3753,0.376,0.3497,0.3575,0.322,0.3312,0.3786,0.379,0.3793,0,0.2447,0.2472,0.2509,0.2573,0.2591,0.2617,0.2728,0.2793,0.2947,0.2999,0.3137,0.3221,0.3433,0.3414,0.3712,0.3618,0.3717,0.3814,0.3821,0.3653,0.3563,0.3328,0.3342,0.3837,0.3834,0.3831,0.3828,0,0.2432,0.2482,0.2509,0.2528,0.2603,0.263,0.2677,0.2807,0.288,0.3047,0.3104,0.3328,0.3438,0.362,0.3786,0.3761,0.4068,0.4054,0.3929,0.3911,0.3692,0.3643,0.4271,0.4271,0.427,0.427,0.4269,0,0.2443,0.2464,0.249,0.2506,0.254,0.2602,0.2673,0.2752,0.2887,0.299,0.3128,0.3242,0.3496,0.3671,0.3817,0.3927,0.4089,0.3968,0.3954,0.3645,0.3592,0.4131,0.4112,0.4276,0.4274,0.4273,0.4272,0,0.2431,0.2452,0.2478,0.2523,0.253,0.2553,0.263,0.2698,0.2815,0.2955,0.3003,0.3221,0.3436,0.3643,0.3948,0.3929,0.4087,0.4084,0.3659,0.359,0.3845,0.3822,0.3978,0.3971,0.3965,0.396,0.3956,0,0.2436,0.2442,0.2461,0.2464,0.2473,0.2509,0.2543,0.265,0.2727,0.2937,0.3004,0.3222,0.3317,0.359,0.3616,0.3748,0.4011,0.3521,0.3421,0.3854,0.3827,0.3812,0.3797,0.3103,0.3092,0.3084,0.3077,0,0.2432,0.2422,0.2432,0.2438,0.2446,0.2474,0.2525,0.2565,0.2717,0.2794,0.2925,0.2992,0.313,0.306,0.3158,0.3221,0.3454,0.3336,0.3972,0.3186,0.3029,0.3001,0.3017,0.2998,0.3006,0.3011,0.3016,0.3019,0.2411,0.2407,0.2407,0.2418,0.2423,0.2437,0.2441,0.2498,0.2557,0.2613,0.2724,0.2704,0.2712,0.2637,0.2633,0.2668,0.29,0.2881,0.2911,0.2949,0.2773,0.261,0.2466,0.2471,0.2475,0.2478,0.2481,0,0.2403,0.2399,0.2397,0.239,0.2362,0.2409,0.2435,0.2372,0.2381,0.2401,0.2385,0.2132,0.2023,0.2174,0.1986,0.1946,0.1966,0.2017,0.2037,0.2111,0.2178,0.1967,0.1445,0.1443,0.1441,0.1439,0,0,0.2396,0.2383,0.2385,0.233,0.2332,0.2265,0.2266,0.2155,0.2106,0.1956,0.1902,0.1887,0.1989,0.1664,0.1604,0.1513,0.183,0.1477,0.2286,0.2376,0.2441,0.2627,0.2376,0,0,0,0,0]},{"header":{"parameterUnit":"m.s-1","parameterCategory":2,"la1":30.2991,"la2":30.254,"lo1":-89.0895,"lo2":-89.0444,"dy":0.0017,"dx":0.0017,"nx":28,"ny":28,"refTime":"2024-06-29T21:00:00:Z","depth":"2","parameterNumber":3,"parameterNumberName":"V-component_of_CURRENTS"},"data":[0,0,0,0,0,0,0,0,0,0,0,0,0,0,0,0,0,0,0,0,0,0,0,0,0,0,0,0,0,0,0,0,0,0,0,0,0,0,0,0,0,0,0,0,0,0,0,0,0,0,0,0,0,0,0,0,0,0,0.0913,0.0913,0,0.0898,0.0897,0.0897,0.0844,0.0843,0.0842,0.0841,0.0726,0.0724,0.0722,0,0,0,0,0,0,0,0,0,0,0,0,0,0.088,0.0881,0.0914,0.0913,0.0913,0.0898,0.0897,0.0897,0.0844,0.0843,0.0841,0.084,0.0727,0.0725,0.0722,0,0,0,0,0,0,0,0,0,0,0,0,0,0.0882,0.0881,0.0914,0.0885,0.0883,0.0898,0.0897,0.0897,0.0844,0.0843,0.0841,0.0839,0.0728,0.0725,0.0722,0.0738,0,0,0.0713,0.0711,0,0,0,0,0,0,0,0,0.0882,0.0883,0.089,0.0887,0.0884,0.0871,0.0844,0.0839,0.0845,0.0858,0.084,0.0839,0.0767,0.0761,0.0762,0.0732,0.0727,0.0713,0.0711,0.0709,0.0709,0,0,0,0,0,0,0,0.0882,0.0883,0.0907,0.089,0.0886,0.0867,0.0866,0.0843,0.082,0.0857,0.0853,0.0853,0.0765,0.0766,0.0759,0.0726,0.0713,0.071,0.0708,0.0707,0.07,0.0702,0,0,0,0,0,0,0.0888,0.0884,0.0907,0.0906,0.088,0.087,0.0868,0.0877,0.0823,0.0814,0.0854,0.0851,0.0771,0.0763,0.0755,0.0754,0.0709,0.0707,0.0705,0.0698,0.07,0.0702,0,0,0,0,0,0,0.0888,0.0891,0.0908,0.0894,0.0895,0.0872,0.0883,0.0877,0.0867,0.0822,0.081,0.0847,0.077,0.0759,0.0745,0.0749,0.0705,0.0703,0.0697,0.0699,0.0701,0.0762,0,0,0,0,0,0,0.0887,0.0891,0.0897,0.0895,0.0896,0.0919,0.0884,0.0878,0.087,0.0864,0.0812,0.0801,0.0768,0.075,0.0742,0.0744,0.07,0.0694,0.0698,0.07,0.0758,0.0767,0.0774,0,0,0,0,0,0.0886,0.09,0.0898,0.09,0.0907,0.092,0.0919,0.0896,0.0871,0.0877,0.0849,0.0802,0.0763,0.0749,0.0739,0.0741,0.0693,0.0697,0.07,0.0755,0.0765,0.0774,0,0,0,0,0,0,0.0878,0.0896,0.0893,0.0909,0.0917,0.0911,0.0911,0.0898,0.0883,0.0868,0.0822,0.0811,0.0804,0.0773,0.0758,0.0752,0.072,0.0722,0.0765,0.0774,0.0782,0.0799,0.0698,0,0,0,0,0,0.0885,0.0905,0.0914,0.0926,0.0931,0.0922,0.0922,0.091,0.0898,0.0888,0.0852,0.0823,0.0816,0.0794,0.078,0.0771,0.0738,0.0769,0.0776,0.0783,0.0794,0.0768,0.0773,0.0714,0.0714,0.0714,0,0,0.0881,0.0897,0.0904,0.0927,0.0926,0.0945,0.0917,0.092,0.0932,0.0878,0.087,0.085,0.0825,0.0823,0.0815,0.079,0.078,0.0787,0.0793,0.0801,0.0772,0.0777,0.0782,0.0716,0.0716,0.0715,0,0,0.0893,0.0902,0.0924,0.094,0.0952,0.0954,0.0957,0.0952,0.0944,0.0944,0.0919,0.0915,0.0872,0.0874,0.0866,0.0911,0.0831,0.0888,0.0924,0.0899,0.0903,0.0906,0.0854,0.0852,0.088,0.088,0.088,0,0.0882,0.0923,0.093,0.0959,0.0978,0.0961,0.099,0.0988,0.0977,0.0987,0.0944,0.0935,0.0907,0.0934,0.0944,0.0928,0.088,0.0887,0.0907,0.091,0.0912,0.0858,0.0855,0.0883,0.0883,0.0883,0.0882,0,0.0918,0.0949,0.0962,0.1002,0.1022,0.1043,0.1052,0.1059,0.1039,0.1038,0.1049,0.1019,0.1012,0.1003,0.0978,0.0992,0.0941,0.0926,0.0879,0.0921,0.0862,0.0857,0.0888,0.0887,0.0886,0.0885,0,0,0.0895,0.0973,0.0977,0.1016,0.1051,0.1075,0.1104,0.114,0.1167,0.1133,0.1164,0.1148,0.1118,0.1111,0.1079,0.1052,0.1021,0.0985,0.0982,0.0925,0.0927,0.0838,0.0824,0.0989,0.0989,0.0989,0.0871,0,0.0918,0.0994,0.1025,0.1092,0.1134,0.1153,0.119,0.1218,0.122,0.1241,0.1216,0.1219,0.1161,0.1147,0.1118,0.106,0.1015,0.1052,0.0902,0.0898,0.0807,0.0819,0.0754,0.0639,0.0867,0.0866,0.0866,0,0.0944,0.0999,0.1072,0.1167,0.1186,0.1214,0.1288,0.1321,0.1354,0.135,0.1345,0.1313,0.129,0.1223,0.1122,0.1135,0.1034,0.0972,0.0966,0.0862,0.0802,0.0638,0.0622,0.0858,0.0859,0.0859,0.086,0,0.0945,0.1035,0.1101,0.113,0.1221,0.1253,0.1294,0.1346,0.1389,0.1407,0.1417,0.1386,0.1351,0.1249,0.111,0.1101,0.0981,0.0957,0.0782,0.0773,0.0682,0.0665,0.0874,0.0874,0.0875,0.0875,0.0875,0,0.0974,0.1024,0.1101,0.1138,0.1214,0.1269,0.1343,0.138,0.1438,0.1492,0.1456,0.1478,0.1347,0.1264,0.1135,0.094,0.099,0.0788,0.0742,0.0699,0.0686,0.0855,0.0854,0.087,0.0871,0.0872,0.0873,0,0.0971,0.1021,0.1099,0.119,0.1216,0.1266,0.1364,0.1429,0.1462,0.1526,0.1524,0.1523,0.1412,0.1268,0.1104,0.0955,0.0799,0.0713,0.0656,0.0605,0.0597,0.0602,0.0505,0.0501,0.0497,0.0494,0.0492,0,0.0979,0.1016,0.1118,0.1155,0.119,0.1268,0.1334,0.1419,0.1488,0.1561,0.1598,0.1523,0.1494,0.1221,0.093,0.0661,0.0722,0.0436,0.042,0.0597,0.0562,0.0572,0.058,0.0313,0.0309,0.0307,0.0304,0,0.0978,0.1005,0.1065,0.115,0.1215,0.1312,0.1402,0.1473,0.1576,0.1647,0.1726,0.1713,0.1409,0.1111,0.0718,0.0554,0.0477,0.0364,0.0569,0.042,0.0407,0.0377,0.0393,0.0278,0.028,0.0282,0.0284,0.0285,0.0947,0.0986,0.1054,0.1144,0.1222,0.1337,0.142,0.1528,0.1663,0.1729,0.1751,0.1674,0.1352,0.0786,0.0512,0.021,0.025,0.0151,0.0164,0.0179,0.0182,0.0164,-0.0013,-0.0012,-0.0011,-0.001,-0.001,0,0.0899,0.0959,0.1046,0.1159,0.1262,0.1301,0.1457,0.1538,0.1686,0.17,0.1714,0.1368,0.1028,0.0723,0.0189,-0.0086,-0.0061,-0.0109,-0.0032,-0.0008,0.0014,0.0014,-0.0228,-0.0229,-0.0229,-0.0229,0,0,0.0864,0.0932,0.1011,0.1167,0.1246,0.1355,0.1443,0.1546,0.1584,0.1608,0.1522,0.1358,0.1019,0.0602,0.025,-0.0001,0.0076,-0.0031,0.0155,0.0305,0.0331,0.0153,0.0176,0,0,0,0,0]}],[{"header":{"parameterUnit":"m.s-1","parameterCategory":2,"la1":30.2991,"la2":30.254,"lo1":-89.0895,"lo2":-89.0444,"dy":0.0017,"dx":0.0017,"nx":28,"ny":28,"refTime":"2024-06-29T21:00:00:Z","depth":"4","parameterNumber":2,"parameterNumberName":"U-component_of_CURRENTS"},"data":[0,0,0,0,0,0,0,0,0,0,0,0,0,0,0,0,0,0,0,0,0,0,0,0,0,0,0,0,0,0,0,0,0,0,0,0,0,0,0,0,0,0,0,0,0,0,0,0,0,0,0,0,0,0,0,0,0,0,0.0475,0.0476,0,0.0646,0.0648,0.065,0.0779,0.078,0.0781,0.0782,0.0886,0.0888,0.089,0,0,0,0,0,0,0,0,0,0,0,0,0,0.0335,0.0336,0.0474,0.0476,0.0479,0.0646,0.0648,0.065,0.0779,0.078,0.0782,0.0783,0.0886,0.0888,0.089,0,0,0,0,0,0,0,0,0,0,0,0,0,0.044,0.0336,0.0474,0.0562,0.0572,0.0645,0.0648,0.0651,0.0778,0.078,0.0782,0.0783,0.0885,0.0888,0.089,0.0873,0,0,0.0898,0.0899,0,0,0,0,0,0,0,0,0.0433,0.0445,0.0547,0.0556,0.0567,0.0692,0.0637,0.0722,0.0778,0.0701,0.0782,0.0784,0.0814,0.0822,0.0853,0.0877,0.0882,0.0898,0.09,0.0901,0.0902,0,0,0,0,0,0,0,0.0426,0.0439,0.0543,0.0549,0.0562,0.062,0.0636,0.0655,0.0745,0.0707,0.0717,0.0735,0.0819,0.085,0.0856,0.0883,0.0898,0.0901,0.0902,0.0903,0.1029,0.1031,0,0,0,0,0,0,0.0398,0.0431,0.0537,0.0548,0.0503,0.062,0.0639,0.0651,0.0746,0.0763,0.0733,0.074,0.0844,0.0852,0.086,0.102,0.0901,0.0904,0.0905,0.1027,0.1029,0.1031,0,0,0,0,0,0,0.0394,0.0406,0.053,0.0494,0.0514,0.062,0.0634,0.0653,0.077,0.0767,0.0782,0.0839,0.0846,0.0856,0.0944,0.1018,0.0905,0.0907,0.1025,0.1028,0.103,0.1226,0,0,0,0,0,0,0.0389,0.0403,0.0451,0.0491,0.0515,0.0622,0.0633,0.0656,0.0772,0.0786,0.086,0.0867,0.0848,0.0941,0.0947,0.1019,0.0909,0.1023,0.1026,0.1029,0.1217,0.1235,0.125,0,0,0,0,0,0.0384,0.0422,0.0452,0.0468,0.056,0.0625,0.0644,0.0725,0.0777,0.0836,0.089,0.0869,0.0965,0.0946,0.0952,0.1027,0.1021,0.1025,0.1029,0.121,0.1232,0.125,0,0,0,0,0,0,0.0393,0.044,0.0473,0.0529,0.0597,0.0648,0.0728,0.0776,0.0871,0.0917,0.0909,0.092,0.1015,0.0987,0.0966,0.1064,0.0982,0.0988,0.1117,0.1138,0.1154,0.1199,0.0911,0,0,0,0,0,0.0412,0.046,0.0508,0.0568,0.061,0.0689,0.0748,0.0807,0.087,0.0922,0.0983,0.1017,0.102,0.106,0.1068,0.1142,0.1057,0.1183,0.12,0.1215,0.1251,0.1141,0.1151,0.1044,0.1044,0.1044,0,0,0.0433,0.0469,0.05,0.0576,0.0647,0.0719,0.0733,0.0851,0.0937,0.0911,0.1089,0.1092,0.105,0.1127,0.1165,0.113,0.1201,0.122,0.1233,0.1262,0.1146,0.1156,0.1165,0.1047,0.1047,0.1046,0,0,0.0483,0.0539,0.06,0.0655,0.077,0.0812,0.0863,0.098,0.1072,0.1215,0.1188,0.1236,0.1324,0.1278,0.1259,0.1366,0.1285,0.1389,0.1531,0.1424,0.1432,0.1438,0.1349,0.1345,0.1406,0.1407,0.1407,0,0.053,0.0588,0.0634,0.0704,0.0773,0.086,0.0952,0.1035,0.1181,0.1261,0.1308,0.1399,0.1377,0.1378,0.1439,0.1405,0.1353,0.1466,0.1447,0.145,0.1453,0.136,0.1353,0.1417,0.1416,0.1415,0.1414,0,0.0583,0.0676,0.0725,0.0833,0.0913,0.1013,0.1109,0.1252,0.1392,0.1461,0.1593,0.1576,0.1626,0.1613,0.1587,0.1597,0.1556,0.1472,0.1401,0.1476,0.1372,0.1362,0.1431,0.1427,0.1424,0.1422,0,0,0.0612,0.0739,0.078,0.0868,0.1,0.1081,0.1236,0.1386,0.1513,0.1663,0.1784,0.182,0.1858,0.1835,0.1779,0.1717,0.1694,0.1664,0.1653,0.1587,0.15,0.1405,0.1383,0.1629,0.1628,0.1628,0.1423,0,0.0679,0.0812,0.0867,0.1053,0.1141,0.1262,0.1399,0.1549,0.1683,0.1823,0.1828,0.1914,0.1916,0.1961,0.1912,0.1732,0.1679,0.176,0.1429,0.142,0.1333,0.1371,0.1625,0.1414,0.1411,0.1409,0.1408,0,0.0728,0.0823,0.0986,0.1193,0.1254,0.1402,0.1649,0.1771,0.1923,0.2023,0.2109,0.2109,0.2088,0.2053,0.1854,0.1926,0.1779,0.1627,0.1612,0.1455,0.1306,0.1318,0.1387,0.1389,0.1391,0.1392,0.1393,0,0.0714,0.0926,0.107,0.1131,0.1354,0.1534,0.1699,0.189,0.1955,0.2148,0.2168,0.2207,0.2154,0.2036,0.1768,0.1854,0.1455,0.149,0.1254,0.1244,0.1304,0.1299,0.1338,0.1338,0.1339,0.1339,0.134,0,0.0728,0.0851,0.1124,0.1201,0.1454,0.1622,0.1847,0.2027,0.2137,0.2083,0.228,0.2122,0.2149,0.191,0.1762,0.1439,0.1435,0.1299,0.1189,0.1391,0.1399,0.1296,0.1293,0.1331,0.1333,0.1335,0.1336,0,0.0654,0.0799,0.0998,0.1324,0.1446,0.1658,0.1891,0.1953,0.214,0.2047,0.2084,0.2043,0.1809,0.1716,0.1412,0.1349,0.1077,0.0931,0.1129,0.1028,0.0986,0.0996,0.082,0.0815,0.0811,0.0808,0.0805,0,0.0622,0.0708,0.107,0.1185,0.1364,0.1638,0.1732,0.196,0.1897,0.1825,0.1662,0.1563,0.1487,0.1056,0.0985,0.0817,0.0764,0.0714,0.0977,0.1025,0.0934,0.0952,0.0967,0.0798,0.0797,0.0796,0.0795,0,0.0554,0.07,0.0846,0.106,0.1249,0.1356,0.1492,0.1452,0.1505,0.1611,0.1311,0.1248,0.0973,0.0889,0.0776,0.059,0.0849,0.0673,0.0688,0.0935,0.0995,0.0913,0.0934,0.078,0.0782,0.0783,0.0784,0,0.0524,0.0577,0.0734,0.0926,0.1035,0.1018,0.1185,0.1101,0.1117,0.1104,0.0876,0.0801,0.0795,0.073,0.0482,0.0486,0.0586,0.0669,0.0687,0.0703,0.0769,0.0835,0.0483,0,0,0,0,0,0.048,0.0451,0.0551,0.0711,0.0758,0.0847,0.0892,0.0995,0.1015,0.0798,0.091,0.0658,0.0564,0.0474,0.0471,0.0419,0.0553,0.0413,0.0651,0.0699,0.0716,0.0811,0,0,0,0,0,0,0.0425,0.0475,0.0464,0.0402,0.0463,0.0483,0.054,0.0619,0.0543,0.0606,0.0555,0.0653,0.0551,0.0563,0.0457,0.0451,0.0604,0.041,0.0411,0.0689,0.0705,0.0718,0.0822,0,0,0,0,0]},{"header":{"parameterUnit":"m.s-1","parameterCategory":2,"la1":30.2991,"la2":30.254,"lo1":-89.0895,"lo2":-89.0444,"dy":0.0017,"dx":0.0017,"nx":28,"ny":28,"refTime":"2024-06-29T21:00:00:Z","depth":"4","parameterNumber":3,"parameterNumberName":"V-component_of_CURRENTS"},"data":[0,0,0,0,0,0,0,0,0,0,0,0,0,0,0,0,0,0,0,0,0,0,0,0,0,0,0,0,0,0,0,0,0,0,0,0,0,0,0,0,0,0,0,0,0,0,0,0,0,0,0,0,0,0,0,0,0,0,0.0115,0.0114,0,-0.001,-0.0012,-0.0014,-0.0094,-0.0094,-0.0094,-0.0094,-0.0243,-0.0247,-0.0251,0,0,0,0,0,0,0,0,0,0,0,0,0,0.0173,0.0172,0.0115,0.0114,0.0113,-0.001,-0.0012,-0.0014,-0.0094,-0.0094,-0.0094,-0.0094,-0.0242,-0.0246,-0.0251,0,0,0,0,0,0,0,0,0,0,0,0,0,0.0104,0.0172,0.0115,0.0061,0.0055,-0.001,-0.0012,-0.0015,-0.0094,-0.0094,-0.0094,-0.0094,-0.024,-0.0246,-0.0252,-0.0285,0,0,-0.027,-0.0272,0,0,0,0,0,0,0,0,0.0108,0.0101,0.007,0.0065,0.0058,-0.0033,-0.0047,-0.0105,-0.0094,-0.0041,-0.0094,-0.0094,-0.0172,-0.0184,-0.0213,-0.0292,-0.0298,-0.027,-0.0274,-0.0276,-0.0278,0,0,0,0,0,0,0,0.0113,0.0106,0.0061,0.0069,0.0062,0.0005,-0.0005,-0.0059,-0.0108,-0.0046,-0.0051,-0.0059,-0.0176,-0.0207,-0.0217,-0.03,-0.027,-0.0275,-0.0279,-0.0281,-0.0469,-0.047,0,0,0,0,0,0,0.0143,0.0111,0.0065,0.0058,0.0088,0.0005,-0.0006,-0.0007,-0.0107,-0.0121,-0.0058,-0.0062,-0.0197,-0.021,-0.0222,-0.0286,-0.0276,-0.0281,-0.0285,-0.0467,-0.0469,-0.0471,0,0,0,0,0,0,0.0145,0.014,0.007,0.0084,0.0072,0.0005,0.0004,-0.0009,-0.0046,-0.0115,-0.0131,-0.0081,-0.0197,-0.0214,-0.0292,-0.0292,-0.0284,-0.0289,-0.0466,-0.0468,-0.047,-0.0402,0,0,0,0,0,0,0.0147,0.0142,0.0149,0.0087,0.0072,0.0028,0.0004,-0.0011,-0.0047,-0.0054,-0.014,-0.0154,-0.0199,-0.0283,-0.0298,-0.0299,-0.0294,-0.0464,-0.0467,-0.0469,-0.0402,-0.0401,-0.0401,0,0,0,0,0,0.015,0.0163,0.0151,0.0145,0.0086,0.0029,0.0015,-0.0037,-0.0048,-0.0069,-0.0136,-0.0151,-0.0311,-0.029,-0.0306,-0.0309,-0.0462,-0.0466,-0.0469,-0.0402,-0.0401,-0.0401,0,0,0,0,0,0,0.019,0.0155,0.014,0.0142,0.0089,0.0017,0.0003,-0.0035,-0.0104,-0.0106,-0.0176,-0.0196,-0.0267,-0.0305,-0.0279,-0.0376,-0.0387,-0.0394,-0.0331,-0.0331,-0.033,-0.0273,-0.0299,0,0,0,0,0,0.0206,0.0207,0.0153,0.0151,0.0135,0.0068,0.0041,0.0004,-0.0061,-0.0092,-0.0151,-0.022,-0.0294,-0.0324,-0.0394,-0.0442,-0.0469,-0.0457,-0.0456,-0.0455,-0.0423,-0.0512,-0.0515,-0.0482,-0.0482,-0.0482,0,0,0.0221,0.0202,0.0202,0.0159,0.0121,0.0088,0.005,0.0013,-0.0021,-0.0096,-0.0156,-0.0225,-0.0312,-0.0376,-0.0408,-0.0403,-0.0475,-0.0459,-0.0457,-0.0426,-0.0516,-0.0518,-0.0521,-0.0484,-0.0484,-0.0483,0,0,0.0245,0.0237,0.0241,0.0202,0.0153,0.0108,0.01,0.0028,-0.0006,-0.0069,-0.0142,-0.0214,-0.0304,-0.0376,-0.0421,-0.046,-0.0479,-0.0477,-0.0412,-0.0499,-0.0501,-0.0504,-0.0514,-0.0518,-0.0463,-0.0463,-0.0463,0,0.0264,0.0263,0.0228,0.0212,0.0188,0.0121,0.0104,0.0053,-0.0039,-0.0061,-0.0075,-0.0231,-0.0304,-0.0396,-0.0401,-0.0455,-0.0475,-0.0402,-0.0494,-0.0497,-0.0501,-0.0512,-0.0517,-0.046,-0.0461,-0.0461,-0.0461,0,0.0276,0.0275,0.0274,0.0237,0.0199,0.0176,0.0109,0.0075,0.004,-0.0011,-0.0094,-0.02,-0.0267,-0.0325,-0.0364,-0.0431,-0.0426,-0.0491,-0.0482,-0.0499,-0.0511,-0.0517,-0.0456,-0.0457,-0.0458,-0.0459,0,0,0.0335,0.0293,0.0299,0.0295,0.0215,0.0197,0.0147,0.0091,0.0085,-0.0005,-0.0034,-0.0161,-0.0178,-0.023,-0.0309,-0.0388,-0.0428,-0.0418,-0.0424,-0.0401,-0.0553,-0.0479,-0.0479,-0.0504,-0.0505,-0.0506,-0.0538,0,0.0358,0.0357,0.0318,0.031,0.0302,0.0236,0.021,0.0151,0.0098,0.0053,-0.0057,-0.0098,-0.0156,-0.0157,-0.0252,-0.0415,-0.0445,-0.0408,-0.0562,-0.0565,-0.0477,-0.0486,-0.0511,-0.0543,-0.0545,-0.0546,-0.0546,0,0.038,0.0385,0.0395,0.0376,0.0372,0.038,0.035,0.032,0.0231,0.02,0.0132,0.0045,-0.0066,-0.0107,-0.0326,-0.0294,-0.0369,-0.049,-0.0496,-0.0448,-0.0504,-0.0536,-0.0559,-0.0558,-0.0557,-0.0556,-0.0555,0,0.044,0.0436,0.0462,0.0449,0.0418,0.0457,0.0468,0.0403,0.0386,0.0341,0.0306,0.0159,0.0094,-0.0067,-0.0272,-0.0284,-0.0523,-0.0586,-0.0578,-0.0573,-0.0657,-0.0655,-0.0679,-0.0679,-0.0679,-0.0678,-0.0678,0,0.0458,0.0479,0.0534,0.0547,0.0637,0.0594,0.0665,0.0647,0.0596,0.0512,0.0447,0.0305,0.01,-0.0085,-0.0243,-0.0421,-0.0482,-0.0539,-0.0582,-0.0625,-0.062,-0.0659,-0.0657,-0.068,-0.0679,-0.0679,-0.0679,0,0.0475,0.0495,0.0549,0.0613,0.0669,0.0756,0.0827,0.0817,0.081,0.0689,0.0685,0.0438,0.0212,0.0025,-0.0267,-0.0365,-0.0555,-0.0578,-0.0544,-0.059,-0.054,-0.0534,-0.0569,-0.0567,-0.0565,-0.0563,-0.0562,0,0.0468,0.0502,0.064,0.0718,0.0776,0.091,0.0949,0.0961,0.0868,0.0677,0.0537,0.0389,0.0202,-0.0097,-0.0303,-0.0477,-0.051,-0.054,-0.0577,-0.0493,-0.0532,-0.0529,-0.0526,-0.0559,-0.0558,-0.0558,-0.0557,0,0.0448,0.0519,0.0562,0.0754,0.0862,0.0904,0.0932,0.0918,0.0788,0.077,0.0459,0.0318,0.008,-0.0142,-0.0191,-0.0381,-0.0508,-0.0522,-0.0528,-0.0563,-0.0482,-0.0522,-0.0521,-0.0551,-0.0552,-0.0552,-0.0553,0,0.0456,0.0479,0.0571,0.0745,0.0843,0.0818,0.0885,0.0753,0.0713,0.0504,0.036,0.0163,0.0032,-0.01,-0.0257,-0.0301,-0.034,-0.0375,-0.0389,-0.0398,-0.034,-0.0212,-0.0214,0,0,0,0,0,0.0448,0.045,0.0549,0.0677,0.0758,0.0828,0.0762,0.0761,0.0666,0.0471,0.0446,0.0223,0.0043,-0.0097,-0.0119,-0.0237,-0.0351,-0.027,-0.0397,-0.0515,-0.0522,-0.0478,0,0,0,0,0,0,0.0415,0.0483,0.0497,0.0562,0.0675,0.0691,0.0681,0.0623,0.0501,0.0429,0.0337,0.0267,0.01,0.0123,-0.0087,-0.0121,-0.0204,-0.0356,-0.0357,-0.0511,-0.0518,-0.0524,-0.048,0,0,0,0,0]}]]